Flight Information

DEPARTURE
SPOKANE, WA
Elevation:
2385
Runways:
3/21 - 11002x150 - ASPH-CONC-E
8/26 - 8199x150 - ASPH-G
ATIS:
124.325
Clearance Delivery:
127.55
Ground:
121.9
Tower:
SPOKANE TOWER 118.3
DESTINATION
,
Elevation:
TPA:
1000 (est.)


6489.1 NM69° True-19° Var49° HDG

Flight Plan:
(click to file on line)

1. Type
2. Aircraft Identification
3. Aircraft Type / Special Equipment
4. True Airspeed
kts
5. Departure Airport
(ICAO code)
6. Arriving Airport
(ICAO code)
7. Cruising Altitude
ft
8. Alternate Airport
(ICAO code)
9. Route of Flight
10. Remarks


00:00:00 Departure ATIS: Destination ATIS:

Clearance Limit:
Route:
Altitude: Expect in minutes
Frequency:
Transponder: (7500 Hijack / 7600 Lost Comms / 7700 Emergency)


KGEG 040453Z 06005KT 10SM CLR M08/M10 A3024 RMK AO2 SLP276 I1001 T10781100
Time: 2022-12-04T04:53:00Z
1670646658
Winds: 60 @ 5 kts
Visibility: 10.0 sm
Clouds (AGL): CLR
Temperature: -7.8 C
Dew Point: -10.0 C
Pressure: 30.239174 in Hgbr


Notes:

Data extracted from FAA Digital Chart Supplement. Effective: 0901Z Thursday, 27 JAN 2022 to 0900z Thursday, 24 MAR 2022
Current ATIS data is provided courtisy of PilotEdge.